User: anonymous   Login
Location: Unspecified
(0.0000°N, 0.0000°E)
Time: 02:56:43
(UTC+00:00)
Language:

STARLINK-30191 - Orbit

View from above orbital plane
View from above orbital plane
View from above satellite
View from above satellite

Ground track
Ground track

The orbit is defined by the following mean orbital elements,

1 57413U          26145.29603259 +.00000000 +00000-0 +17873-4 0 00007
2 57413  43.0033 114.0159 0001136 281.3100  78.7624 15.27577429    05
Epoch (UTC): 25 May 2026 07:06:17
Eccentricity: 0.0001136
inclination: 43.0033°
perigee height: 482 km
apogee height: 484 km
right ascension of ascending node: 114.0159°
argument of perigee: 281.3100°
revolutions per day: 15.27577429
mean anomaly at epoch: 78.7624°

The dashed part of the orbit path shows where the satellite is in the earth's shadow,  

DLR